Weather History for Pittsfield, IL

Change the Weather History Date:

Saturday, February 9, 2013

  Actual Average (KUIN) Record (KUIN)
Temperature  
Mean Temperature 34 °F 29 °F  
Max Temperature 40 °F 37 °F 67 °F (1943)
Min Temperature 29 °F 21 °F -16 °F (1979)
Degree Days  
Heating Degree Days 30 36  
Month to date heating degree days 331  
Since 1 July heating degree days 3717  
Cooling Degree Days 0 0  
Month to date cooling degree days 0  
Year to date cooling degree days 0  
Moisture  
Dew Point 29 °F    
Average Humidity 83    
Maximum Humidity 91    
Minimum Humidity 72    
Precipitation  
Precipitation 0.04 in 0.06 in 0.77 in (1959)
Month to date precipitation 0.50  
Year to date precipitation 2.02  
Sea Level Pressure  
Sea Level Pressure 30.21 in    
Wind  
Wind Speed 10 mph (SE)    
Max Wind Speed 16 mph    
Max Gust Speed 20 mph    
Visibility 10 miles    
Events Rain    
T = Trace of Precipitation, MM = Missing Value Source: NWS Daily Summary

Daily Weather History Graph

Daily Weather History Graph

Search for Another Location

Airport:

Trip Planner

Search our weather history database for the weather conditions in past years. The results will help you decide how hot, cold, wet, or windy it might be!

Date:

Astronomy

Feb. 09, 2013 Rise Set
Actual Time 7:02 AM CST 5:32 PM CST
Civil Twilight 6:34 AM CST 6:00 PM CST
Nautical Twilight 6:02 AM CST 6:32 PM CST
Astronomical Twilight 5:31 AM CST 7:04 PM CST
Moon 6:14 AM CST (2/9) 5:15 PM CST (2/9)
Length of Visible Light 11h 26m
Length of Day
10h 30m
Waning Crescent, 0% of the Moon is Illuminated
Feb 9
Waning Crescent
Feb 10
New
Feb 17
First Quarter
Feb 25
Full
Mar 4
Last Quarter

Hourly Weather History & Observations

Time (CST) Temp. Windchill Dew Point Humidity Pressure Visibility Wind Dir Wind Speed Gust Speed Precip Events Conditions
12:15 AM 30.7 °F 23.3 °F 27.3 °F 87% 30.35 in 10.0 mi ESE 8.1 mph - N/A   Overcast
12:35 AM 30.4 °F 23.6 °F 27.1 °F 88% 30.35 in 10.0 mi East 6.9 mph - N/A   Overcast
12:55 AM 30.0 °F 21.1 °F 26.6 °F 87% 30.35 in 10.0 mi East 10.4 mph - N/A   Overcast
1:15 AM 30.0 °F 21.7 °F 26.8 °F 88% 30.35 in 10.0 mi ESE 9.2 mph - N/A   Overcast
1:35 AM 29.8 °F 23.0 °F 26.6 °F 88% 30.35 in 10.0 mi ESE 6.9 mph - N/A   Overcast
1:55 AM 29.7 °F 20.1 °F 26.6 °F 88% 30.35 in 10.0 mi ESE 11.5 mph 16.1 mph N/A   Overcast
2:15 AM 29.8 °F 23.0 °F 26.8 °F 88% 30.36 in 10.0 mi SSE 6.9 mph - N/A   Overcast
2:35 AM 29.5 °F 20.4 °F 26.4 °F 88% 30.36 in 10.0 mi SSE 10.4 mph - N/A   Overcast
2:55 AM 29.3 °F 21.5 °F 26.4 °F 89% 30.36 in 10.0 mi SSE 8.1 mph - N/A   Overcast
3:15 AM 29.7 °F 20.7 °F 26.6 °F 88% 30.35 in 10.0 mi SSE 10.4 mph - N/A   Overcast
3:35 AM 29.5 °F 20.4 °F 26.6 °F 89% 30.34 in 10.0 mi SE 10.4 mph - N/A   Overcast
3:55 AM 29.8 °F 19.8 °F 27.0 °F 89% 30.33 in 10.0 mi SE 12.7 mph - N/A   Overcast
4:15 AM 29.3 °F 18.6 °F 26.6 °F 90% 30.33 in 10.0 mi SE 13.8 mph 17.3 mph N/A   Overcast
4:35 AM 29.7 °F 20.1 °F 26.6 °F 88% 30.33 in 7.0 mi SSE 11.5 mph - N/A   Overcast
4:55 AM 29.7 °F 20.1 °F 26.6 °F 88% 30.33 in 10.0 mi SSE 11.5 mph - N/A   Overcast
5:15 AM 30.0 °F 23.2 °F 27.1 °F 89% 30.33 in 10.0 mi SSE 6.9 mph - N/A   Overcast
5:35 AM 29.8 °F 20.9 °F 26.6 °F 88% 30.33 in 10.0 mi SSE 10.4 mph - N/A   Overcast
5:55 AM 29.8 °F 21.5 °F 26.8 °F 88% 30.32 in 10.0 mi SE 9.2 mph - N/A   Overcast
6:15 AM 30.0 °F 21.7 °F 26.8 °F 88% 30.33 in 10.0 mi South 9.2 mph - N/A   Overcast
6:35 AM 30.0 °F 22.4 °F 26.8 °F 88% 30.32 in 10.0 mi SSE 8.1 mph - N/A   Overcast
6:55 AM 30.2 °F 21.9 °F 26.8 °F 87% 30.33 in 10.0 mi SSE 9.2 mph - N/A   Overcast
7:15 AM 30.2 °F 21.9 °F 26.8 °F 87% 30.33 in 10.0 mi SE 9.2 mph - N/A   Overcast
7:35 AM 30.6 °F 21.8 °F 27.1 °F 87% 30.33 in 10.0 mi SE 10.4 mph - N/A   Overcast
7:55 AM 30.7 °F 22.0 °F 27.1 °F 86% 30.33 in 10.0 mi SE 10.4 mph - N/A   Overcast
8:15 AM 30.9 °F 21.7 °F 27.1 °F 86% 30.33 in 10.0 mi SSE 11.5 mph - N/A   Overcast
8:35 AM 31.1 °F 21.4 °F 26.8 °F 84% 30.33 in 10.0 mi SE 12.7 mph - N/A   Overcast
8:55 AM 31.1 °F 21.9 °F 27.1 °F 85% 30.31 in 10.0 mi SE 11.5 mph - N/A   Overcast
9:15 AM 31.1 °F 20.9 °F 27.1 °F 85% 30.31 in 10.0 mi SE 13.8 mph - N/A   Overcast
9:35 AM 31.5 °F 22.3 °F 27.3 °F 85% 30.31 in 10.0 mi SE 11.5 mph - N/A   Overcast
9:55 AM 31.8 °F 22.8 °F 27.7 °F 85% 30.31 in 10.0 mi SSE 11.5 mph - N/A   Overcast
10:15 AM 31.8 °F 22.3 °F 27.5 °F 84% 30.31 in 10.0 mi SE 12.7 mph - N/A   Overcast
10:35 AM 32.0 °F 22.1 °F 27.3 °F 83% 30.30 in 10.0 mi SE 13.8 mph - N/A   Overcast
10:55 AM 32.0 °F 23.0 °F 27.5 °F 83% 30.30 in 10.0 mi SE 11.5 mph 18.4 mph N/A   Overcast
11:15 AM 32.5 °F 23.2 °F 27.5 °F 82% 30.30 in 10.0 mi SE 12.7 mph - N/A   Overcast
11:35 AM 32.5 °F 21.9 °F 27.9 °F 83% 30.28 in 10.0 mi SE 16.1 mph - N/A   Overcast
11:55 AM 33.1 °F 23.0 °F 28.2 °F 82% 30.27 in 10.0 mi SE 15.0 mph - N/A   Overcast
12:15 PM 33.8 °F 24.8 °F 28.6 °F 81% 30.26 in 10.0 mi SE 12.7 mph - N/A   Mostly Cloudy
12:35 PM 35.2 °F 26.6 °F 28.6 °F 77% 30.24 in 10.0 mi SSE 12.7 mph - N/A   Scattered Clouds
12:55 PM 37.0 °F 28.9 °F 30.0 °F 76% 30.22 in 10.0 mi SE 12.7 mph 18.4 mph N/A   Clear
1:15 PM 36.1 °F 26.9 °F 29.8 °F 78% 30.21 in 10.0 mi SE 15.0 mph - N/A   Clear
1:35 PM 36.7 °F 29.4 °F 30.2 °F 77% 30.20 in 10.0 mi SE 10.4 mph - N/A   Clear
1:55 PM 37.4 °F 29.8 °F 30.6 °F 76% 30.19 in 10.0 mi ESE 11.5 mph 19.6 mph N/A   Clear
2:15 PM 38.3 °F 31.4 °F 30.7 °F 74% 30.17 in 10.0 mi ESE 10.4 mph - N/A   Clear
2:35 PM 38.7 °F 30.9 °F 31.6 °F 76% 30.16 in 10.0 mi ESE 12.7 mph - N/A   Clear
2:55 PM 39.7 °F 32.3 °F 31.5 °F 72% 30.15 in 10.0 mi SE 12.7 mph - N/A   Clear
3:15 PM 39.9 °F 32.9 °F 31.8 °F 73% 30.14 in 10.0 mi ESE 11.5 mph - N/A   Clear
3:35 PM 39.6 °F 33.5 °F 31.6 °F 73% 30.14 in 10.0 mi ESE 9.2 mph - N/A   Clear
3:55 PM 40.1 °F 32.7 °F 32.2 °F 73% 30.12 in 10.0 mi SE 12.7 mph - N/A   Clear
4:15 PM 39.7 °F 32.7 °F 32.2 °F 74% 30.11 in 10.0 mi ESE 11.5 mph - N/A   Clear
4:35 PM 39.2 °F 31.6 °F 31.8 °F 75% 30.10 in 10.0 mi ESE 12.7 mph 16.1 mph N/A   Clear
4:55 PM 38.7 °F 31.4 °F 31.6 °F 76% 30.09 in 10.0 mi SE 11.5 mph - N/A   Clear
5:15 PM 37.9 °F 31.5 °F 32.0 °F 79% 30.10 in 10.0 mi ESE 9.2 mph - N/A   Clear
5:35 PM 37.6 °F 30.0 °F 32.0 °F 80% 30.09 in 10.0 mi SE 11.5 mph - N/A   Clear
5:55 PM 37.4 °F 30.3 °F 31.8 °F 80% 30.08 in 10.0 mi ESE 10.4 mph - N/A   Clear
6:15 PM 36.7 °F 29.4 °F 31.8 °F 83% 30.09 in 10.0 mi ESE 10.4 mph - N/A   Clear
6:35 PM 36.5 °F 29.7 °F 31.6 °F 83% 30.09 in 10.0 mi SE 9.2 mph - N/A   Clear
6:55 PM 36.5 °F 29.7 °F 31.6 °F 83% 30.09 in 10.0 mi SE 9.2 mph - N/A   Clear
7:15 PM 36.5 °F 29.2 °F 31.6 °F 83% 30.08 in 10.0 mi SE 10.4 mph - N/A   Scattered Clouds
7:35 PM 36.5 °F 28.7 °F 31.8 °F 83% 30.07 in 10.0 mi SE 11.5 mph - N/A   Scattered Clouds
7:55 PM 36.7 °F 28.4 °F 32.0 °F 83% 30.06 in 10.0 mi SE 12.7 mph - N/A   Scattered Clouds
8:15 PM 36.7 °F 29.4 °F 32.0 °F 83% 30.05 in 10.0 mi SE 10.4 mph - N/A   Scattered Clouds
8:35 PM 37.0 °F 29.3 °F 32.0 °F 82% 30.04 in 10.0 mi SE 11.5 mph 17.3 mph N/A   Scattered Clouds
8:55 PM 37.6 °F 29.6 °F 32.0 °F 80% 30.04 in 10.0 mi SE 12.7 mph - N/A   Clear
9:15 PM 37.8 °F 30.7 °F 32.0 °F 80% 30.03 in 10.0 mi SE 10.4 mph - N/A   Clear
9:35 PM 37.9 °F 30.5 °F 32.0 °F 79% 30.03 in 10.0 mi SE 11.5 mph 16.1 mph N/A   Clear
9:55 PM 37.9 °F 31.5 °F 32.0 °F 79% 30.02 in 10.0 mi SE 9.2 mph - N/A   Clear
10:15 PM 37.6 °F 30.5 °F 32.2 °F 81% 30.01 in 10.0 mi SE 10.4 mph - N/A Rain Light Rain
10:35 PM 37.0 °F 29.8 °F 33.3 °F 86% 30.00 in 7.0 mi SE 10.4 mph - N/A Rain Rain
10:55 PM 36.9 °F 29.6 °F 33.8 °F 89% 30.00 in 7.0 mi SE 10.4 mph - N/A   Light Drizzle
11:15 PM 37.4 °F 31.4 °F 33.8 °F 87% 30.02 in 7.0 mi SSE 8.1 mph - N/A   Light Drizzle
11:35 PM 37.0 °F 31.0 °F 34.0 °F 89% 30.00 in 7.0 mi SE 8.1 mph - 0.02 in Rain Rain
11:55 PM 37.2 °F 31.9 °F 34.7 °F 91% 30.01 in 5.0 mi SSE 6.9 mph - 0.04 in Rain Light Rain